CW9009 Weather Reports


Display with metric or nautical units.
time (UTC)temp
F
wind
direction
speed
MPH
gust
MPH
rain 1hr
in
rain 24hr
in
rain mn
in
humidity
%
barometer
mb
20260831122431 49 49 1.0 2.0 0.00 0.00 0.00 63 1016.3
20260831121437 49 224 1.0 1.0 0.00 0.00 0.00 64 1016.2
20260831120417 0 21 2.0 3.0 0.00 0.00 0.00
20260831115417 49 198 1.0 1.0 0.00 0.00 0.00 65 1016.3
20260831114437 0 5 2.0 3.0 0.00 0.00 0.00
20260831113438 50 7 3.0 3.0 0.00 0.00 0.00 64 1016.3
20260831112438 51 5 2.0 2.0 0.00 0.00 0.00 63 1016.2
20260831111418 0 206 1.0 1.0 0.00 0.00 0.00
20260831110418 0 214 1.0 1.0 0.00 0.00 0.00
20260831105418 51 27 2.0 3.0 0.00 0.00 0.00 60 1016.3
20260831104418 52 33 2.0 3.0 0.00 0.00 0.00 58 1016.3
20260831103418 52 42 2.0 3.0 0.00 0.00 0.00 59 1016.3
20260831102418 51 48 1.0 2.0 0.00 0.00 0.00 59 1016.2
20260831101419 51 204 1.0 1.0 0.00 0.00 0.00 60 1016.2
20260831100419 51 339 1.0 2.0 0.00 0.00 0.00 60 1016.2
20260831095419 51 359 2.0 2.0 0.00 0.00 0.00 60 1016.2
20260831094419 52 214 1.0 1.0 0.00 0.00 0.00 59 1016.2
20260831093419 52 21 1.0 2.0 0.00 0.00 0.00 57 1016.2
20260831092419 53 174 1.0 1.0 0.00 0.00 0.00 57 1016.1
20260831091440 53 62 1.0 2.0 0.00 0.00 0.00 55 1016.0
20260831090420 53 60 1.0 2.0 0.00 0.00 0.00 57 1016.0
20260831085420 54 50 1.0 2.0 0.00 0.00 0.00 57 1016.0
20260831084420 54 79 1.0 2.0 0.00 0.00 0.00 54 1016.0
20260831083420 54 86 1.0 1.0 0.00 0.00 0.00 54 1016.1
20260831082421 54 58 2.0 2.0 0.00 0.00 0.00 54 1016.1
20260831081421 54 72 1.0 1.0 0.00 0.00 0.00 54 1016.0
20260831080421 55 108 2.0 2.0 0.00 0.00 0.00 54 1016.0
20260831075421 55 0.0 0.0 0.00 0.00 0.00 57 1016.1
20260831074421 55 104 1.0 1.0 0.00 0.00 0.00 58 1016.1
20260831073421 55 0.0 0.0 0.00 0.00 0.00 60 1016.2
20260831072421 56 0 0.0 0.0 0.00 0.00 0.00 62 1016.2
20260831071422 56 44 1.0 1.0 0.00 0.00 0.00 63 1016.2
20260831070422 56 0.0 0.0 0.00 0.00 0.00 59 1016.1
20260831065422 57 0.0 0.0 0.00 0.00 0.00 57 1016.1
20260831064422 57 0.0 0.0 0.00 0.00 0.00 55 1016.2
20260831063423 58 62 1.0 1.0 0.00 0.00 0.00 57 1016.2
20260831062603 58 106 2.0 3.0 0.00 0.00 0.00 63 1016.2
20260831061423 58 121 1.0 1.0 0.00 0.00 0.00 58 1016.2
20260831060443 60 81 0.0 1.0 0.00 0.00 0.00 55 1016.2
20260831055443 60 0.0 0.0 0.00 0.00 0.00 55 1016.1
20260831054424 60 119 2.0 2.0 0.00 0.00 0.00 59 1016.0
20260831053424 61 73 1.0 2.0 0.00 0.00 0.00 54 1016.0
20260831052423 62 100 1.0 2.0 0.00 0.00 0.00 54 1016.0
20260831051424 62 109 1.0 2.0 0.00 0.00 0.00 53 1016.0
20260831050424 63 0 0.0 0.0 0.00 0.00 0.00 52 1016.1
20260831045424 63 0.0 0.0 0.00 0.00 0.00 49 1016.0
20260831044424 64 0.0 0.0 0.00 0.00 0.00 49 1016.0
20260831043424 64 0.0 0.0 0.00 0.00 0.00 48 1016.0
20260831042425 65 111 2.0 3.0 0.00 0.00 0.00 48 1016.0
20260831041445 65 0.0 0.0 0.00 0.00 0.00 47 1016.1
20260831040425 66 0.0 0.0 0.00 0.00 0.00 48 1016.0
20260831035425 66 0.0 0.0 0.00 0.00 0.00 47 1015.8
20260831034425 67 0.0 0.0 0.00 0.00 0.00 47 1015.8
20260831033425 68 0.0 0.0 0.00 0.00 0.00 43 1015.8
20260831032425 69 0.0 0.0 0.00 0.00 0.00 42 1015.7
20260831031426 69 0.0 0.0 0.00 0.00 0.00 40 1015.6
20260831030426 70 0.0 0.0 0.00 0.00 0.00 42 1015.6
20260831025446 71 0.0 0.0 0.00 0.00 0.00 42 1015.4
20260831024426 71 0.0 0.0 0.00 0.00 0.00 39 1015.3
20260831023427 72 0.0 0.0 0.00 0.00 0.00 38 1015.2
20260831022426 73 0.0 0.0 0.00 0.00 0.00 37 1015.2
20260831021447 74 0.0 0.0 0.00 0.00 0.00 37 1015.2
20260831020427 75 0.0 0.0 0.00 0.00 0.00 34 1015.2
20260831015427 76 56 0.0 0.0 0.00 0.00 0.00 34 1015.1
20260831014427 77 0.0 0.0 0.00 0.00 0.00 33 1015.3
20260831013428 77 0.0 0.0 0.00 0.00 0.00 32 1015.2
20260831012427 78 0 0.0 0.0 0.00 0.00 0.00 32 1015.3
20260831011427 78 0.0 0.0 0.00 0.00 0.00 32 1015.4
20260831010428 78 294 0.0 1.0 0.00 0.00 0.00 33 1015.6
20260831005428 78 0.0 0.0 0.00 0.00 0.00 33 1015.6
20260831004448 78 0 0.0 0.0 0.00 0.00 0.00 34 1015.6
20260831003457 78 280 1.0 1.0 0.00 0.00 0.00 35 1015.7
20260831002417 78 1 0.0 1.0 0.00 0.00 0.00 34 1015.7
20260831001417 78 323 0.0 1.0 0.00 0.00 0.00 33 1015.7
20260831000418 78 302 2.0 2.0 0.00 0.00 0.00 33 1015.7
20260830235418 78 295 0.0 1.0 0.00 0.00 0.00 33 1015.8
20260830234418 78 308 0.0 1.0 0.00 0.00 0.00 34 1016.1
20260830233418 78 0 0.0 0.0 0.00 0.00 0.00 35 1016.0
20260830232418 78 307 1.0 2.0 0.00 0.00 0.00 35 1016.1
20260830231439 78 309 1.0 1.0 0.00 0.00 0.00 35 1016.2
20260830230419 78 0.0 0.0 0.00 0.00 0.00 35 1016.2
20260830225420 78 0.0 0.0 0.00 0.00 0.00 37 1016.4
20260830224419 77 295 0.0 1.0 0.00 0.00 0.00 37 1016.5
20260830223416 77 311 1.0 2.0 0.00 0.00 0.00 38 1016.7
20260830222419 77 0.0 0.0 0.00 0.00 0.00 38 1016.7
20260830221420 77 0 0.0 0.0 0.00 0.00 0.00 38 1016.9
20260830220420 77 0.0 0.0 0.00 0.00 0.00 39 1017.0
20260830215416 76 0.0 0.0 0.00 0.00 0.00 38 1017.0
20260830214436 76 315 1.0 1.0 0.00 0.00 0.00 42 1017.3
20260830213420 75 0.0 0.0 0.00 0.00 0.00 40 1017.4
20260830212421 74 0.0 0.0 0.00 0.00 0.00 42 1017.6
20260830211441 74 0.0 0.0 0.00 0.00 0.00 42 1017.6
20260830210421 74 282 0.0 1.0 0.00 0.00 0.00 43 1017.7
20260830205421 73 308 1.0 2.0 0.00 0.00 0.00 44 1017.9
20260830204418 73 294 2.0 3.0 0.00 0.00 0.00 44 1017.9
20260830203438 72 0.0 0.0 0.00 0.00 0.00 45 1018.0
20260830202438 72 305 1.0 2.0 0.00 0.00 0.00 47 1018.3
20260830201418 71 0 0.0 0.0 0.00 0.00 0.00 48 1018.3
20260830200419 71 347 0.0 1.0 0.00 0.00 0.00 47 1018.4
20260830195458 70 0.0 0.0 0.00 0.00 0.00 48 1018.4
20260830194419 70 303 1.0 1.0 0.00 0.00 0.00 49 1018.5
20260830193419 69 332 1.0 2.0 0.00 0.00 0.00 50 1018.7
20260830192419 69 0.0 0.0 0.00 0.00 0.00 50 1018.8
20260830191419 68 283 0.0 1.0 0.00 0.00 0.00 53 1018.9
20260830190419 68 0.0 0.0 0.00 0.00 0.00 52 1019.0
20260830185419 67 0.0 0.0 0.00 0.00 0.00 52 1019.1
20260830184419 66 0.0 0.0 0.00 0.00 0.00 52 1019.2
20260830183420 66 0.0 0.0 0.00 0.00 0.00 54 1019.3
20260830182420 65 347 0.0 0.0 0.00 0.00 0.00 55 1019.3
20260830181420 64 306 1.0 2.0 0.00 0.00 0.00 58 1019.5
20260830180421 63 307 1.0 2.0 0.00 0.00 0.00 58 1019.6
20260830175420 63 0 0.0 1.0 0.00 0.00 0.00 59 1019.6
20260830174420 62 0.0 0.0 0.00 0.00 0.00 60 1019.7
20260830173421 61 0.0 0.0 0.00 0.00 0.00 60 1019.9
20260830172421 60 0.0 0.0 0.00 0.00 0.00 63 1019.9
20260830171421 60 89 1.0 2.0 0.00 0.00 0.00 63 1020.0
20260830170421 59 0.0 0.0 0.00 0.00 0.00 64 1020.0
20260830165441 59 0 0.0 0.0 0.00 0.00 0.00 64 1019.9
20260830164441 59 56 0.0 0.0 0.00 0.00 0.00 64 1019.9
20260830163422 58 0.0 0.0 0.00 0.00 0.00 64 1019.9
20260830162422 58 146 1.0 3.0 0.00 0.00 0.00 64 1019.9
20260830161423 57 0.0 0.0 0.00 0.00 0.00 64 1019.9
20260830160423 57 0.0 0.0 0.00 0.00 0.00 65 1019.9
20260830155423 57 238 1.0 2.0 0.00 0.00 0.00 64 1019.9
20260830154423 56 0.0 0.0 0.00 0.00 0.00 65 1019.9
20260830153423 56 0.0 0.0 0.00 0.00 0.00 67 1019.8
20260830152443 55 0.0 0.0 0.00 0.00 0.00 67 1019.9
20260830151423 55 0.0 0.0 0.00 0.00 0.00 67 1019.9
20260830150443 54 6 0.0 0.0 0.00 0.00 0.00 68 1019.8
20260830145444 54 0 0.0 0.0 0.00 0.00 0.00 68 1019.9
20260830144424 53 282 0.0 1.0 0.00 0.00 0.00 69 1019.8
20260830143424 53 0 0.0 0.0 0.00 0.00 0.00 70 1019.7
20260830142424 52 0.0 0.0 0.00 0.00 0.00 72 1019.6
20260830141425 52 207 1.0 1.0 0.00 0.00 0.00 72 1019.5
20260830140425 51 211 1.0 1.0 0.00 0.00 0.00 74 1019.5
20260830135445 51 211 1.0 1.0 0.00 0.00 0.00 74 1019.3
20260830134425 51 2 2.0 2.0 0.00 0.00 0.00 75 1019.2
20260830133425 51 342 2.0 2.0 0.00 0.00 0.00 74 1019.1
20260830132425 51 354 2.0 2.0 0.00 0.00 0.00 74 1019.1
20260830131425 52 252 1.0 2.0 0.00 0.00 0.00 72 1019.0
20260830130426 52 215 1.0 1.0 0.00 0.00 0.00 72 1018.8
20260830125426 52 215 1.0 1.0 0.00 0.00 0.00 72 1018.7
20260830124426 53 214 1.0 1.0 0.00 0.00 0.00 69 1018.5
20260830123426 53 212 1.0 1.0 0.00 0.00 0.00 69 1018.5